Regional Weather Roundup
Issued by NWS State College, PA

Home | Current Version | Previous Version | Graphics & Text | Print | Product List | Glossary Off
Versions: 1 2 3 4 5 6 7 8 9 10 11 12 13 14 15 16 17 18 19 20 21 22 23 24 25 26 27 28 29 30 31 32 33 34 35 36 37 38 39 40 41 42 43 44 45 46 47 48 49 50

923
ASUS41 KCTP 040303
RWRCTP

REGIONAL WEATHER ROUNDUP
NATIONAL WEATHER SERVICE STATE COLLEGE PA
1100 PM EDT TUE MAY 03 2016

Note: "fair" indicates few or no clouds below 12,000 feet with no
significant weather and/or obstructions to visibility.

* = STATION THAT DOES NOT REPORT PRECIPITATION /E.G. RAIN...SNOW...ETC/
    THUNDER OR FOG.

PAZ002>004-007>009-013>016-020>023-029>032-040400-
WESTERN PENNSYLVANIA

CITY           SKY/WX    TMP DP  RH WIND       PRES   REMARKS
ERIE           CLEAR     43  38  82 S5        29.82F
MEADVILLE      CLEAR     44  39  82 CALM      29.81F
FRANKLIN*      CLEAR     46  37  71 CALM      29.84S
NEW CASTLE     CLOUDY    52  39  61 CALM      29.83S
BEAVER COUNTY  NOT AVBL
BUTLER*        CLOUDY    54  37  54 CALM      29.84S
PITTSBURGH INT CLOUDY    57  41  55 NW7       29.81S
PITTSBURGH     CLOUDY    56  42  59 W6        29.81S
INDIANA*       CLOUDY    54  45  71 CALM      29.83F
LATROBE        PTCLDY    52  50  93 S7        29.81F
WASHINGTON CO* CLOUDY    48  43  81 CALM      29.82F
$$

PAZ004>006-010>012-017>019-024>028-033>037-041-042-045-046-049>053-040400-
CENTRAL PENNSYLVANIA

CITY           SKY/WX    TMP DP  RH WIND       PRES   REMARKS
BRADFORD       CLOUDY    42  39  89 CALM      29.80F
DUBOIS         CLOUDY    49  41  74 N3        29.79F
CLEARFIELD     CLOUDY    52  43  71 NE5       29.80S
JOHNSTOWN      CLOUDY    51  41  68 W6        29.80F
ALTOONA        CLOUDY    55  45  68 CALM      29.80S
STATE COLLEGE  CLOUDY    53  49  87 N5        29.79F
WILLIAMSPORT   CLOUDY    53  47  79 N3        29.79F
SELINSGROVE    LGT RAIN  53  51  93 N3        29.80F
FT INDIANTOWN  CLOUDY    54  54 100 VRB3      29.80S
CAPITAL CITY   CLOUDY    58  52  80 E6        29.79S
HARRISBURG     LGT RAIN  57  52  83 SE5       29.79S
YORK           LGT RAIN  56  55  97 SE5       29.79F FOG
$$

PAZ038>040-043-044-047-048-054-055-060>062-067>071-040400-
EASTERN PENNSYLVANIA

CITY           SKY/WX    TMP DP  RH WIND       PRES   REMARKS
SCRANTON       CLOUDY    51  49  92 NE3       29.79F
MOUNT POCONO   FOG       48  47  96 SE3       29.81S VSB 1/4
ALLENTOWN      CLOUDY    54  51  90 E5        29.82S FOG
QUAKERTOWN*    CLOUDY    54  52  94 SE5       29.82F
READING        CLOUDY    56  51  84 E7        29.79F
LANCASTER      CLOUDY    54  53  97 CALM      29.80S
COATESVILLE    CLOUDY    54 N/A N/A MISG      29.82R
POTTSTOWN      CLOUDY    53  52  96 CALM      29.82F
BLUE BELL      CLOUDY    52  50  93 E3        29.81F
DOYLESTOWN     CLOUDY    50  50 100 VRB3      29.81F
WILLOW GROVE   NOT AVBL
NORTH PHILA    CLOUDY    53  50  89 E10       29.84S
PHILADELPHIA   CLOUDY    54  48  80 E9        29.82F
$$




USA.gov is the U.S. government's official web portal to all federal, state and local government web resources and services.